Year,Month,Day,Hour,Minute,Value (Times are PST for temperature in C)
2021,04,28,00,00,10.60
2021,04,28,00,01,10.60
2021,04,28,00,02,10.60
2021,04,28,00,03,10.60
2021,04,28,00,04,10.60
2021,04,28,00,05,10.60
2021,04,28,00,06,10.60
2021,04,28,00,07,10.60
2021,04,28,00,08,10.60
2021,04,28,00,09,10.60
2021,04,28,00,10,10.60
2021,04,28,00,11,10.60
2021,04,28,00,12,10.60
2021,04,28,00,13,10.70
2021,04,28,00,14,10.60
2021,04,28,00,15,10.70
2021,04,28,00,16,10.60
2021,04,28,00,17,10.60
2021,04,28,00,18,10.60
2021,04,28,00,19,10.60
2021,04,28,00,20,10.60
2021,04,28,00,21,10.60
2021,04,28,00,22,10.60
2021,04,28,00,23,10.60
2021,04,28,00,24,10.60
2021,04,28,00,25,10.60
2021,04,28,00,26,10.60
2021,04,28,00,27,10.50
2021,04,28,00,28,10.50
2021,04,28,00,29,10.50
2021,04,28,00,30,10.50
2021,04,28,00,31,10.50
2021,04,28,00,32,10.50
2021,04,28,00,33,10.50
2021,04,28,00,34,10.50
2021,04,28,00,35,10.50
2021,04,28,00,36,10.50
2021,04,28,00,37,10.50
2021,04,28,00,38,10.50
2021,04,28,00,39,10.50
2021,04,28,00,40,10.40
2021,04,28,00,41,10.40
2021,04,28,00,42,10.40
2021,04,28,00,43,10.40
2021,04,28,00,44,10.40
2021,04,28,00,45,10.40
2021,04,28,00,46,10.40
2021,04,28,00,47,10.40
2021,04,28,00,48,10.40
2021,04,28,00,49,10.40
2021,04,28,00,50,10.30
2021,04,28,00,51,10.30
2021,04,28,00,52,10.30
2021,04,28,00,53,10.30
2021,04,28,00,54,10.30
2021,04,28,00,55,10.30
2021,04,28,00,56,10.30
2021,04,28,00,57,10.30
2021,04,28,00,58,10.30
2021,04,28,00,59,10.30
2021,04,28,01,00,10.30
2021,04,28,01,01,10.30
2021,04,28,01,02,10.30
2021,04,28,01,03,10.30
2021,04,28,01,04,10.40
2021,04,28,01,05,10.40
2021,04,28,01,06,10.40
2021,04,28,01,07,10.40
2021,04,28,01,08,10.40
2021,04,28,01,09,10.40
2021,04,28,01,10,10.40
2021,04,28,01,11,10.40
2021,04,28,01,12,10.40
2021,04,28,01,13,10.40
2021,04,28,01,14,10.40
2021,04,28,01,15,10.40
2021,04,28,01,16,10.40
2021,04,28,01,17,10.40
2021,04,28,01,18,10.40
2021,04,28,01,19,10.40
2021,04,28,01,20,10.40
2021,04,28,01,21,10.30
2021,04,28,01,22,10.30
2021,04,28,01,23,10.30
2021,04,28,01,24,10.30
2021,04,28,01,25,10.30
2021,04,28,01,26,10.30
2021,04,28,01,27,10.30
2021,04,28,01,28,10.30
2021,04,28,01,29,10.30
2021,04,28,01,30,10.30
2021,04,28,01,31,10.30
2021,04,28,01,32,10.30
2021,04,28,01,33,10.20
2021,04,28,01,34,10.20
2021,04,28,01,35,10.20
2021,04,28,01,36,10.20
2021,04,28,01,37,10.20
2021,04,28,01,38,10.20
2021,04,28,01,39,10.20
2021,04,28,01,40,10.10
2021,04,28,01,41,10.10
2021,04,28,01,42,10.10
2021,04,28,01,43,10.10
2021,04,28,01,44,10.10
2021,04,28,01,45,10.10
2021,04,28,01,46,10.10
2021,04,28,01,47,10.10
2021,04,28,01,48,10.10
2021,04,28,01,49,10.10
2021,04,28,01,50,10.10
2021,04,28,01,51,10.10
2021,04,28,01,52,10.10
2021,04,28,01,53,10.10
2021,04,28,01,54,10.10
2021,04,28,01,55,10.10
2021,04,28,01,56,10.10
2021,04,28,01,57,10.10
2021,04,28,01,58,10.10
2021,04,28,01,59,10.10
2021,04,28,02,00,10.10
2021,04,28,02,01,10.10
2021,04,28,02,02,10.10
2021,04,28,02,03,10.10
2021,04,28,02,04,10.10
2021,04,28,02,05,10.10
2021,04,28,02,06,10.10
2021,04,28,02,07,10.10
2021,04,28,02,08,10.10
2021,04,28,02,09,10.10
2021,04,28,02,10,10.10
2021,04,28,02,11,10.10
2021,04,28,02,12,10.10
2021,04,28,02,13,10.10
2021,04,28,02,14,10.10
2021,04,28,02,15,10.10
2021,04,28,02,16,10.10
2021,04,28,02,17,10.10
2021,04,28,02,18,10.10
2021,04,28,02,19,10.10
2021,04,28,02,20,10.10
2021,04,28,02,21,10.10
2021,04,28,02,22,10.00
2021,04,28,02,23,10.00
2021,04,28,02,24,10.00
2021,04,28,02,25,10.00
2021,04,28,02,26,10.00
2021,04,28,02,27,10.00
2021,04,28,02,28,10.00
2021,04,28,02,29,10.00
2021,04,28,02,30,10.00
2021,04,28,02,31,10.00
2021,04,28,02,32,10.00
2021,04,28,02,33,10.00
2021,04,28,02,34,10.00
2021,04,28,02,35,10.00
2021,04,28,02,36,10.00
2021,04,28,02,37,10.00
2021,04,28,02,38,10.00
2021,04,28,02,39,10.00
2021,04,28,02,40,10.00
2021,04,28,02,41,10.00
2021,04,28,02,42,10.00
2021,04,28,02,43,10.00
2021,04,28,02,44,10.00
2021,04,28,02,45,10.00
2021,04,28,02,46,10.00
2021,04,28,02,47,10.00
2021,04,28,02,48,9.90
2021,04,28,02,49,10.00
2021,04,28,02,50,9.90
2021,04,28,02,51,10.00
2021,04,28,02,52,10.00
2021,04,28,02,53,10.00
2021,04,28,02,54,10.00
2021,04,28,02,55,10.00
2021,04,28,02,56,10.00
2021,04,28,02,57,10.00
2021,04,28,02,58,10.00
2021,04,28,02,59,10.00
2021,04,28,03,00,10.00
2021,04,28,03,01,10.00
2021,04,28,03,02,10.00
2021,04,28,03,03,10.00
2021,04,28,03,04,9.90
2021,04,28,03,05,9.90
2021,04,28,03,06,9.90
2021,04,28,03,07,9.90
2021,04,28,03,08,9.90
2021,04,28,03,09,9.90
2021,04,28,03,10,9.90
2021,04,28,03,11,9.90
2021,04,28,03,12,9.90
2021,04,28,03,13,9.90
2021,04,28,03,14,9.90
2021,04,28,03,15,9.90
2021,04,28,03,16,9.90
2021,04,28,03,17,9.90
2021,04,28,03,18,9.90
2021,04,28,03,19,9.90
2021,04,28,03,20,9.90
2021,04,28,03,21,9.90
2021,04,28,03,22,9.90
2021,04,28,03,23,9.90
2021,04,28,03,24,9.90
2021,04,28,03,25,9.90
2021,04,28,03,26,9.90
2021,04,28,03,27,9.80
2021,04,28,03,28,9.80
2021,04,28,03,29,9.80
2021,04,28,03,30,9.80
2021,04,28,03,31,9.80
2021,04,28,03,32,9.80
2021,04,28,03,33,9.80
2021,04,28,03,34,9.80
2021,04,28,03,35,9.80
2021,04,28,03,36,9.80
2021,04,28,03,37,9.80
2021,04,28,03,38,9.80
2021,04,28,03,39,9.80
2021,04,28,03,40,9.80
2021,04,28,03,41,9.80
2021,04,28,03,42,9.80
2021,04,28,03,43,9.80
2021,04,28,03,44,9.80
2021,04,28,03,45,9.70
2021,04,28,03,46,9.70
2021,04,28,03,47,9.70
2021,04,28,03,48,9.70
2021,04,28,03,49,9.70
2021,04,28,03,50,9.70
2021,04,28,03,51,9.70
2021,04,28,03,52,9.70
2021,04,28,03,53,9.70
2021,04,28,03,54,9.70
2021,04,28,03,55,9.70
2021,04,28,03,56,9.70
2021,04,28,03,57,9.70
2021,04,28,03,58,9.70
2021,04,28,03,59,9.70
2021,04,28,04,00,9.70
2021,04,28,04,01,9.70
2021,04,28,04,02,9.70
2021,04,28,04,03,9.80
2021,04,28,04,04,9.80
2021,04,28,04,05,9.80
2021,04,28,04,06,9.80
2021,04,28,04,07,9.80
2021,04,28,04,08,9.80
2021,04,28,04,09,9.80
2021,04,28,04,10,9.80
2021,04,28,04,11,9.80
2021,04,28,04,12,9.90
2021,04,28,04,13,9.90
2021,04,28,04,14,9.90
2021,04,28,04,15,9.90
2021,04,28,04,16,9.90
2021,04,28,04,17,9.90
2021,04,28,04,18,9.90
2021,04,28,04,19,9.90
2021,04,28,04,20,9.90
2021,04,28,04,21,9.80
2021,04,28,04,22,9.80
2021,04,28,04,23,9.80
2021,04,28,04,24,9.80
2021,04,28,04,25,9.80
2021,04,28,04,26,9.80
2021,04,28,04,27,9.80
2021,04,28,04,28,9.80
2021,04,28,04,29,9.80
2021,04,28,04,30,9.70
2021,04,28,04,31,9.70
2021,04,28,04,32,9.70
2021,04,28,04,33,9.70
2021,04,28,04,34,9.70
2021,04,28,04,35,9.70
2021,04,28,04,36,9.70
2021,04,28,04,37,9.70
2021,04,28,04,38,9.70
2021,04,28,04,39,9.70
2021,04,28,04,40,9.70
2021,04,28,12,35,14.60
2021,04,28,12,36,14.60
2021,04,28,12,37,14.60
2021,04,28,12,38,14.60
2021,04,28,12,39,14.60
2021,04,28,12,40,14.70
2021,04,28,12,41,14.80
2021,04,28,12,42,14.80
2021,04,28,12,43,14.90
2021,04,28,12,44,14.90
2021,04,28,12,45,15.00
2021,04,28,12,46,15.00
2021,04,28,12,47,14.90
2021,04,28,12,48,14.90
2021,04,28,12,49,14.90
2021,04,28,12,50,14.90
2021,04,28,12,51,14.90
2021,04,28,12,52,14.90
2021,04,28,12,53,14.80
2021,04,28,12,54,14.80
2021,04,28,12,55,14.80
2021,04,28,12,56,14.80
2021,04,28,12,57,14.70
2021,04,28,12,58,14.70
2021,04,28,12,59,14.70
2021,04,28,13,00,14.70
2021,04,28,13,01,14.80
2021,04,28,13,02,15.00
2021,04,28,13,03,15.00
2021,04,28,13,04,15.00
2021,04,28,13,05,15.00
2021,04,28,13,06,15.10
2021,04,28,13,07,15.20
2021,04,28,13,08,15.20
2021,04,28,13,09,15.20
2021,04,28,13,10,15.20
2021,04,28,13,11,15.30
2021,04,28,13,12,15.30
2021,04,28,13,13,15.40
2021,04,28,13,14,15.40
2021,04,28,13,15,15.50
2021,04,28,13,16,15.60
2021,04,28,13,17,15.70
2021,04,28,13,18,15.70
2021,04,28,13,19,15.70
2021,04,28,13,20,15.80
2021,04,28,13,21,15.70
2021,04,28,13,22,15.70
2021,04,28,13,23,15.70
2021,04,28,13,24,15.70
2021,04,28,13,25,15.70
2021,04,28,13,26,15.60
2021,04,28,13,27,15.50
2021,04,28,13,28,15.40
2021,04,28,13,29,15.30
2021,04,28,13,30,15.30
2021,04,28,13,31,15.20
2021,04,28,13,32,15.20
2021,04,28,13,33,15.30
2021,04,28,13,34,15.30
2021,04,28,13,35,15.30
2021,04,28,13,36,15.40
2021,04,28,13,37,15.40
2021,04,28,13,38,15.40
2021,04,28,13,39,15.40
2021,04,28,13,40,15.40
2021,04,28,13,41,15.40
2021,04,28,13,42,15.50
2021,04,28,13,43,15.50
2021,04,28,13,44,15.50
2021,04,28,13,45,15.60
2021,04,28,13,46,15.60
2021,04,28,13,47,15.60
2021,04,28,13,48,15.60
2021,04,28,13,49,15.60
2021,04,28,13,50,15.60
2021,04,28,13,51,15.60
2021,04,28,13,52,15.50
2021,04,28,13,53,15.40
2021,04,28,13,54,15.40
2021,04,28,13,55,15.30
2021,04,28,13,56,15.20
2021,04,28,13,57,15.00
2021,04,28,13,58,15.00
2021,04,28,13,59,15.00
2021,04,28,14,00,14.80
2021,04,28,14,01,14.70
2021,04,28,14,02,14.60
2021,04,28,14,03,14.50
2021,04,28,14,04,14.40
2021,04,28,14,05,14.40
2021,04,28,14,06,14.40
2021,04,28,14,07,14.40
2021,04,28,14,08,14.40
2021,04,28,14,09,14.40
2021,04,28,14,10,14.40
2021,04,28,14,11,14.40
2021,04,28,14,12,14.40
2021,04,28,14,13,14.40
2021,04,28,14,14,14.40
2021,04,28,14,15,14.30
2021,04,28,14,16,14.30
2021,04,28,14,17,14.30
2021,04,28,14,18,14.30
2021,04,28,14,19,14.30
2021,04,28,14,20,14.30
2021,04,28,14,21,14.30
2021,04,28,14,22,14.30
2021,04,28,14,23,14.30
2021,04,28,14,24,14.30
2021,04,28,14,25,14.30
2021,04,28,14,26,14.30
2021,04,28,14,27,14.30
2021,04,28,14,28,14.30
2021,04,28,14,29,14.30
2021,04,28,14,30,14.20
2021,04,28,14,31,14.20
2021,04,28,14,32,14.20
2021,04,28,14,33,14.20
2021,04,28,14,34,14.30
2021,04,28,14,35,14.30
2021,04,28,14,36,14.30
2021,04,28,14,37,14.30
2021,04,28,14,38,14.30
2021,04,28,14,39,14.30
2021,04,28,14,40,14.20
2021,04,28,14,41,14.20
2021,04,28,14,42,14.10
2021,04,28,14,43,14.10
2021,04,28,14,44,14.10
2021,04,28,14,45,14.10
2021,04,28,14,46,14.10
2021,04,28,14,47,14.10
2021,04,28,14,48,14.10
2021,04,28,14,49,14.10
2021,04,28,14,50,14.10
2021,04,28,14,51,14.10
2021,04,28,14,52,14.10
2021,04,28,14,53,14.10
2021,04,28,14,54,14.10
2021,04,28,14,55,14.10
2021,04,28,14,56,14.10
2021,04,28,14,57,14.10
2021,04,28,14,58,14.20
2021,04,28,14,59,14.20
2021,04,28,15,00,14.20
2021,04,28,15,01,14.20
2021,04,28,15,02,14.20
2021,04,28,15,03,14.20
2021,04,28,15,04,14.20
2021,04,28,15,05,14.20
2021,04,28,15,06,14.30
2021,04,28,15,07,14.30
2021,04,28,15,08,14.30
2021,04,28,15,09,14.30
2021,04,28,15,10,14.30
2021,04,28,15,11,14.30
2021,04,28,15,12,14.30
2021,04,28,15,13,14.40
2021,04,28,15,14,14.40
2021,04,28,15,15,14.40
2021,04,28,15,16,14.40
2021,04,28,15,17,14.50
2021,04,28,15,18,14.60
2021,04,28,15,19,14.60
2021,04,28,15,20,14.60
2021,04,28,15,21,14.60
2021,04,28,15,22,14.70
2021,04,28,15,23,14.70
2021,04,28,15,24,14.70
2021,04,28,15,25,14.70
2021,04,28,15,26,14.80
2021,04,28,15,27,15.00
2021,04,28,15,28,15.00
2021,04,28,15,29,15.00
2021,04,28,15,30,15.00
2021,04,28,15,31,15.00
2021,04,28,15,32,15.00
2021,04,28,15,33,15.00
2021,04,28,15,34,15.00
2021,04,28,15,35,15.00
2021,04,28,15,36,15.00
2021,04,28,15,37,15.00
2021,04,28,15,38,15.00
2021,04,28,15,39,14.80
2021,04,28,15,40,14.80
2021,04,28,15,41,14.70
2021,04,28,15,42,14.70
2021,04,28,15,43,14.70
2021,04,28,15,44,14.60
2021,04,28,15,45,14.60
2021,04,28,15,46,14.60
2021,04,28,15,47,14.60
2021,04,28,15,48,14.60
2021,04,28,15,49,14.60
2021,04,28,15,50,14.50
2021,04,28,15,51,14.50
2021,04,28,15,52,14.50
2021,04,28,15,53,14.50
2021,04,28,15,54,14.40
2021,04,28,15,55,14.40
2021,04,28,15,56,14.40
2021,04,28,15,57,14.30
2021,04,28,15,58,14.30
2021,04,28,15,59,14.30
2021,04,28,16,00,14.20
2021,04,28,16,01,14.20
2021,04,28,16,02,14.20
2021,04,28,16,03,14.20
2021,04,28,16,04,14.20
2021,04,28,16,05,14.20
2021,04,28,16,06,14.20
2021,04,28,16,07,14.10
2021,04,28,16,08,14.10
2021,04,28,16,09,14.00
2021,04,28,16,10,14.00
2021,04,28,16,11,14.00
2021,04,28,16,12,14.00
2021,04,28,16,13,13.90
2021,04,28,16,14,13.90
2021,04,28,16,15,13.90
2021,04,28,16,16,13.90
2021,04,28,16,17,13.90
2021,04,28,16,18,13.90
2021,04,28,16,19,13.90
2021,04,28,16,20,13.90
2021,04,28,16,21,13.90
2021,04,28,16,22,13.90
2021,04,28,16,23,13.90
2021,04,28,16,24,13.90
2021,04,28,16,25,13.90
2021,04,28,16,26,13.90
2021,04,28,16,27,13.80
2021,04,28,16,28,13.80
2021,04,28,16,29,13.80
2021,04,28,16,30,13.80
2021,04,28,16,31,13.80
2021,04,28,16,32,13.80
2021,04,28,16,33,13.70
2021,04,28,16,34,13.70
2021,04,28,16,35,13.70
2021,04,28,16,36,13.70
2021,04,28,16,37,13.70
2021,04,28,16,38,13.70
2021,04,28,16,39,13.70
2021,04,28,16,40,13.70
2021,04,28,16,41,13.70
2021,04,28,16,42,13.60
2021,04,28,16,43,13.50
2021,04,28,16,44,13.50
2021,04,28,16,45,13.40
2021,04,28,16,46,13.40
2021,04,28,16,47,13.40
2021,04,28,16,48,13.40
2021,04,28,16,49,13.30
2021,04,28,16,50,13.30
2021,04,28,16,51,13.30
2021,04,28,16,52,13.30
2021,04,28,16,53,13.30
2021,04,28,16,54,13.30
2021,04,28,16,55,13.20
2021,04,28,16,56,13.20
2021,04,28,16,57,13.20
2021,04,28,16,58,13.10
2021,04,28,16,59,13.10
2021,04,28,17,00,13.10
2021,04,28,17,01,13.10
2021,04,28,17,02,13.00
2021,04,28,17,03,13.00
2021,04,28,17,04,13.00
2021,04,28,17,05,12.90
2021,04,28,17,06,12.90
2021,04,28,17,07,12.90
2021,04,28,17,08,12.90
2021,04,28,17,09,12.80
2021,04,28,17,10,12.80
2021,04,28,17,11,12.80
2021,04,28,17,12,12.80
2021,04,28,17,13,12.80
2021,04,28,17,14,12.80
2021,04,28,17,15,12.80
2021,04,28,17,16,12.80
2021,04,28,17,17,12.80
2021,04,28,17,18,12.80
2021,04,28,17,19,12.80
2021,04,28,17,20,12.80
2021,04,28,17,21,12.80
2021,04,28,17,22,12.80
2021,04,28,17,23,12.80
2021,04,28,17,24,12.80
2021,04,28,17,25,12.90
2021,04,28,17,26,12.90
2021,04,28,17,27,12.90
2021,04,28,17,28,12.90
2021,04,28,17,29,12.90
2021,04,28,17,30,12.90
2021,04,28,17,31,12.90
2021,04,28,17,32,12.90
2021,04,28,17,33,12.90
2021,04,28,17,34,12.90
2021,04,28,17,35,12.90
2021,04,28,17,36,12.90
2021,04,28,17,37,12.90
2021,04,28,17,38,12.90
2021,04,28,17,39,12.90
2021,04,28,17,40,12.90
2021,04,28,17,41,12.90
2021,04,28,17,42,13.00
2021,04,28,17,43,13.00
2021,04,28,17,44,13.00
2021,04,28,17,45,13.00
2021,04,28,17,46,13.00
2021,04,28,17,47,13.00
2021,04,28,17,48,13.00
2021,04,28,17,49,13.10
2021,04,28,17,50,13.10
2021,04,28,17,51,13.10
2021,04,28,17,52,13.10
2021,04,28,17,53,13.10
2021,04,28,17,54,13.10
2021,04,28,17,55,13.10
2021,04,28,17,56,13.10
2021,04,28,17,57,13.10
2021,04,28,17,58,13.10
2021,04,28,17,59,13.10
2021,04,28,18,00,13.10
2021,04,28,18,01,13.10
2021,04,28,18,02,13.10
2021,04,28,18,03,13.00
2021,04,28,18,04,13.00
2021,04,28,18,05,13.00
2021,04,28,18,06,13.00
2021,04,28,18,07,12.90
2021,04,28,18,08,12.90
2021,04,28,18,09,12.90
2021,04,28,18,10,12.90
2021,04,28,18,11,12.90
2021,04,28,18,12,12.90
2021,04,28,18,13,12.90
2021,04,28,18,14,12.90
2021,04,28,18,15,12.90
2021,04,28,18,16,12.90
2021,04,28,18,17,12.90
2021,04,28,18,18,12.90
2021,04,28,18,19,12.90
2021,04,28,18,20,12.90
2021,04,28,18,21,12.90
2021,04,28,18,22,12.90
2021,04,28,18,23,12.90
2021,04,28,18,24,12.90
2021,04,28,18,25,12.90
2021,04,28,18,26,12.90
2021,04,28,18,27,12.90
2021,04,28,18,28,12.90
2021,04,28,18,29,12.80
2021,04,28,18,30,12.80
2021,04,28,18,31,12.80
2021,04,28,18,32,12.70
2021,04,28,18,33,12.70
2021,04,28,18,34,12.70
2021,04,28,18,35,12.70
2021,04,28,18,36,12.60
2021,04,28,18,37,12.60
2021,04,28,18,38,12.60
2021,04,28,18,39,12.60
2021,04,28,18,40,12.50
2021,04,28,18,41,12.50
2021,04,28,18,42,12.50
2021,04,28,18,43,12.50
2021,04,28,18,44,12.50
2021,04,28,18,45,12.50
2021,04,28,18,46,12.40
2021,04,28,18,47,12.40
2021,04,28,18,48,12.40
2021,04,28,18,49,12.40
2021,04,28,18,50,12.40
2021,04,28,18,51,12.30
2021,04,28,18,52,12.30
2021,04,28,18,53,12.30
2021,04,28,18,54,12.30
2021,04,28,18,55,12.30
2021,04,28,18,56,12.30
2021,04,28,18,57,12.20
2021,04,28,18,58,12.20
2021,04,28,18,59,12.20
2021,04,28,19,00,12.20
2021,04,28,19,01,12.20
2021,04,28,19,02,12.10
2021,04,28,19,03,12.10
2021,04,28,19,04,12.10
2021,04,28,19,05,12.10
2021,04,28,19,06,12.10
2021,04,28,19,07,12.10
2021,04,28,19,08,12.10
2021,04,28,19,09,12.10
2021,04,28,19,10,12.10
2021,04,28,19,11,12.10
2021,04,28,19,12,12.00
2021,04,28,19,13,12.00
2021,04,28,19,14,12.00
2021,04,28,19,15,12.00
2021,04,28,19,16,12.00
2021,04,28,19,17,12.00
2021,04,28,19,18,12.00
2021,04,28,19,19,12.00
2021,04,28,19,20,12.00
2021,04,28,19,21,12.00
2021,04,28,19,22,12.00
2021,04,28,19,23,12.00
2021,04,28,19,24,12.00
2021,04,28,19,25,12.00
2021,04,28,19,26,12.00
2021,04,28,19,27,12.00
2021,04,28,19,28,11.90
2021,04,28,19,29,11.90
2021,04,28,19,30,11.90
2021,04,28,19,31,11.90
2021,04,28,19,32,11.90
2021,04,28,19,33,11.90
2021,04,28,19,34,11.90
2021,04,28,19,35,11.90
2021,04,28,19,36,11.90
2021,04,28,19,37,11.90
2021,04,28,19,38,11.90
2021,04,28,19,39,11.90
2021,04,28,19,40,11.90
2021,04,28,19,41,11.90
2021,04,28,19,42,11.90
2021,04,28,19,43,11.90
2021,04,28,19,44,11.90
2021,04,28,19,45,11.90
2021,04,28,19,46,11.90
2021,04,28,19,47,11.90
2021,04,28,19,48,11.90
2021,04,28,19,49,11.90
2021,04,28,19,50,11.90
2021,04,28,19,51,11.90
2021,04,28,19,52,11.90
2021,04,28,19,53,11.90
2021,04,28,19,54,11.90
2021,04,28,19,55,11.80
2021,04,28,19,56,11.80
2021,04,28,19,57,11.80
2021,04,28,19,58,11.80
2021,04,28,19,59,11.80
2021,04,28,20,00,11.80
2021,04,28,20,01,11.80
2021,04,28,20,02,11.80
2021,04,28,20,03,11.80
2021,04,28,20,04,11.80
2021,04,28,20,05,11.80
2021,04,28,20,06,11.80
2021,04,28,20,07,11.80
2021,04,28,20,08,11.80
2021,04,28,20,09,11.70
2021,04,28,20,10,11.70
2021,04,28,20,11,11.70
2021,04,28,20,12,11.70
2021,04,28,20,13,11.70
2021,04,28,20,14,11.70
2021,04,28,20,15,11.70
2021,04,28,20,16,11.70
2021,04,28,20,17,11.70
2021,04,28,20,18,11.70
2021,04,28,20,19,11.70
2021,04,28,20,20,11.70
2021,04,28,20,21,11.70
2021,04,28,20,22,11.70
2021,04,28,20,23,11.70
2021,04,28,20,24,11.60
2021,04,28,20,25,11.60
2021,04,28,20,26,11.60
2021,04,28,20,27,11.60
2021,04,28,20,28,11.60
2021,04,28,20,29,11.60
2021,04,28,20,30,11.60
2021,04,28,20,31,11.60
2021,04,28,20,32,11.60
2021,04,28,20,33,11.60
2021,04,28,20,34,11.60
2021,04,28,20,35,11.60
2021,04,28,20,36,11.60
2021,04,28,20,37,11.60
2021,04,28,20,38,11.60
2021,04,28,20,39,11.60
2021,04,28,20,40,11.60
2021,04,28,20,41,11.60
2021,04,28,20,42,11.50
2021,04,28,20,43,11.50
2021,04,28,20,44,11.50
2021,04,28,20,45,11.50
2021,04,28,20,46,11.50
2021,04,28,20,47,11.50
2021,04,28,20,48,11.50
2021,04,28,20,49,11.50
2021,04,28,20,50,11.50
2021,04,28,20,51,11.50
2021,04,28,20,52,11.50
2021,04,28,20,53,11.50
2021,04,28,20,54,11.50
2021,04,28,20,55,11.40
2021,04,28,20,56,11.40
2021,04,28,20,57,11.40
2021,04,28,20,58,11.40
2021,04,28,20,59,11.40
2021,04,28,21,00,11.40
2021,04,28,21,01,11.40
2021,04,28,21,02,11.40
2021,04,28,21,03,11.40
2021,04,28,21,04,11.40
2021,04,28,21,05,11.40
2021,04,28,21,06,11.40
2021,04,28,21,07,11.40
2021,04,28,21,08,11.40
2021,04,28,21,09,11.40
2021,04,28,21,10,11.40
2021,04,28,21,11,11.40
2021,04,28,21,12,11.40
2021,04,28,21,13,11.40
2021,04,28,21,14,11.40
2021,04,28,21,15,11.40
2021,04,28,21,16,11.40
2021,04,28,21,17,11.40
2021,04,28,21,18,11.40
2021,04,28,21,19,11.40
2021,04,28,21,20,11.40
2021,04,28,21,21,11.40
2021,04,28,21,22,11.40
2021,04,28,21,23,11.40
2021,04,28,21,24,11.40
2021,04,28,21,25,11.40
2021,04,28,21,26,11.40
2021,04,28,21,27,11.40
2021,04,28,21,28,11.40
2021,04,28,21,29,11.40
2021,04,28,21,30,11.40
2021,04,28,21,31,11.40
2021,04,28,21,32,11.40
2021,04,28,21,33,11.30
2021,04,28,21,34,11.40
2021,04,28,21,35,11.30
2021,04,28,21,36,11.30
2021,04,28,21,37,11.30
2021,04,28,21,38,11.40
2021,04,28,21,39,11.40
2021,04,28,21,40,11.40
2021,04,28,21,41,11.40
2021,04,28,21,42,11.40
2021,04,28,21,43,11.40
2021,04,28,21,44,11.40
2021,04,28,21,45,11.40
2021,04,28,21,46,11.40
2021,04,28,21,47,11.40
2021,04,28,21,48,11.40
2021,04,28,21,49,11.40
2021,04,28,21,50,11.40
2021,04,28,21,51,11.40
2021,04,28,21,52,11.40
2021,04,28,21,53,11.40
2021,04,28,21,54,11.40
2021,04,28,21,55,11.40
2021,04,28,21,56,11.40
2021,04,28,21,57,11.40
2021,04,28,21,58,11.40
2021,04,28,21,59,11.30
2021,04,28,22,00,11.30
2021,04,28,22,01,11.30
2021,04,28,22,02,11.30
2021,04,28,22,03,11.30
2021,04,28,22,04,11.30
2021,04,28,22,05,11.30
2021,04,28,22,06,11.30
2021,04,28,22,07,11.30
2021,04,28,22,08,11.30
2021,04,28,22,09,11.30
2021,04,28,22,10,11.30
2021,04,28,22,11,11.30
2021,04,28,22,12,11.30
2021,04,28,22,13,11.30
2021,04,28,22,14,11.30
2021,04,28,22,15,11.30
2021,04,28,22,16,11.30
2021,04,28,22,17,11.30
2021,04,28,22,18,11.30
2021,04,28,22,19,11.30
2021,04,28,22,20,11.30
2021,04,28,22,21,11.30
2021,04,28,22,22,11.30
2021,04,28,22,23,11.30
2021,04,28,22,24,11.30
2021,04,28,22,25,11.30
2021,04,28,22,26,11.30
2021,04,28,22,27,11.30
2021,04,28,22,28,11.30
2021,04,28,22,29,11.30
2021,04,28,22,30,11.30
2021,04,28,22,31,11.20
2021,04,28,22,32,11.20
2021,04,28,22,33,11.20
2021,04,28,22,34,11.20
2021,04,28,22,35,11.20
2021,04,28,22,36,11.20
2021,04,28,22,37,11.20
2021,04,28,22,38,11.20
2021,04,28,22,39,11.20
2021,04,28,22,40,11.20
2021,04,28,22,41,11.20
2021,04,28,22,42,11.20
2021,04,28,22,43,11.20
2021,04,28,22,44,11.20
2021,04,28,22,45,11.20
2021,04,28,22,46,11.20
2021,04,28,22,47,11.20
2021,04,28,22,48,11.20
2021,04,28,22,49,11.20
2021,04,28,22,50,11.20
2021,04,28,22,51,11.20
2021,04,28,22,52,11.20
2021,04,28,22,53,11.20
2021,04,28,22,54,11.20
2021,04,28,22,55,11.20
2021,04,28,22,56,11.20
2021,04,28,22,57,11.10
2021,04,28,22,58,11.10
2021,04,28,22,59,11.10
2021,04,28,23,00,11.10
2021,04,28,23,01,11.10
2021,04,28,23,02,11.20
2021,04,28,23,03,11.20
2021,04,28,23,04,11.20
2021,04,28,23,05,11.20
2021,04,28,23,06,11.20
2021,04,28,23,07,11.20
2021,04,28,23,08,11.20
2021,04,28,23,09,11.20
2021,04,28,23,10,11.10
2021,04,28,23,11,11.10
2021,04,28,23,12,11.10
2021,04,28,23,13,11.10
2021,04,28,23,14,11.10
2021,04,28,23,15,11.10
2021,04,28,23,16,11.10
2021,04,28,23,17,11.10
2021,04,28,23,18,11.10
2021,04,28,23,19,11.10
2021,04,28,23,20,11.00
2021,04,28,23,21,11.00
2021,04,28,23,22,11.00
2021,04,28,23,23,11.00
2021,04,28,23,24,11.00
2021,04,28,23,25,11.00
2021,04,28,23,26,10.90
2021,04,28,23,27,10.90
2021,04,28,23,28,10.90
2021,04,28,23,29,10.90
2021,04,28,23,30,10.90
2021,04,28,23,31,10.90
2021,04,28,23,32,10.90
2021,04,28,23,33,10.90
2021,04,28,23,34,10.90
2021,04,28,23,35,10.90
2021,04,28,23,36,10.90
2021,04,28,23,37,10.90
2021,04,28,23,38,10.90
2021,04,28,23,39,10.90
2021,04,28,23,40,10.90
2021,04,28,23,41,10.90
2021,04,28,23,42,10.90
2021,04,28,23,43,10.90
2021,04,28,23,44,10.90
2021,04,28,23,45,10.90
2021,04,28,23,46,10.90
2021,04,28,23,47,10.90
2021,04,28,23,48,10.90
2021,04,28,23,49,10.90
2021,04,28,23,50,10.90
2021,04,28,23,51,10.90
2021,04,28,23,52,10.90
2021,04,28,23,53,10.90
2021,04,28,23,54,10.90
2021,04,28,23,55,10.90
2021,04,28,23,56,10.90
2021,04,28,23,57,10.90
2021,04,28,23,58,10.90
2021,04,28,23,59,10.90
